Location: Mannheim
(49.4880°N, 8.4650°E)
Time: 06:02:20
(UTC+02:00)

ISS - Pass Details

Date: 16 September 2018
Orbit: 403 x 409 km, 51.6° (Epoch: 24 September)

Event Time Altitude Azimuth Distance (km) Brightness Sun altitude
Exits shadow 05:43:13 26° 235° (SW) 837 -2.8 -13.5°
Maximum altitude 05:43:49 28° 215° (SW) 795 -2.8 -13.4°
Drops below altitude 10° 05:46:40 10° 154° (SSE) 1,454 -0.9 -13.0°
Sets 05:48:54 0° 142° (SE) 2,309 0.3 -12.6°
